Location: Jablonec nad Nisou
(50.7170°N, 15.1830°E)
Time: 05:08:36
(UTC+01:00)

ISS - Visible Passes

Search period start: 22 January 2026 00:00
Search period end: 01 February 2026 00:00
Orbit: 413 x 423 km, 51.6° (Epoch: 21 January)

Date Brightness Start Highest point End Pass type
(mag) Time Alt. Az. Time Alt. Az. Time Alt. Az.
22 Jan -3.8 17:54:14 10° W 17:57:34 73° N 17:59:23 25° E visible
22 Jan -1.2 19:31:03 10° WNW 19:32:19 21° W 19:32:19 21° W visible
23 Jan -3.8 18:43:02 10° WNW 18:46:22 79° SSW 18:46:22 79° SSW visible
24 Jan -3.8 17:55:00 10° WNW 17:58:21 86° N 18:00:27 21° E visible
24 Jan -1.2 19:31:53 10° W 19:33:23 21° W 19:33:23 21° W visible
25 Jan -3.0 18:43:44 10° W 18:46:57 46° SSW 18:47:30 41° S visible
26 Jan -3.4 17:55:35 10° WNW 17:58:53 62° SSW 18:01:41 14° ESE visible
26 Jan -1.0 19:32:59 10° W 19:34:38 16° SW 19:34:38 16° SW visible
27 Jan -1.6 18:44:27 10° W 18:47:12 24° SW 18:48:57 16° S visible
28 Jan -2.2 17:56:05 10° W 17:59:08 34° SSW 18:02:12 10° SE visible
29 Jan -0.6 18:45:57 10° WSW 18:47:08 11° SW 18:48:18 10° SSW visible
30 Jan -0.9 17:56:48 10° W 17:59:05 17° SW 18:01:20 10° S visible
